Starlink 31378

operational
NORAD ID: 58932 Int'l Des: 2024-027 Owner: SPXS Country: US Constellation: starlink
LEOCIRCULAR

Über Starlink 31378

Beschreibung wird geladen...

Live-Position

3D-Globus wird geladen...

Nächste Überflüge

Höhenverlauf

Altitude vs Time

uPlot chart will show altitude changes over time

Zweizeiliger Elementsatz

1 58932U 24027B 25307.98631729 -.00000019 00000-0 11478-4 0 9990
2 58932 53.1591 173.4279 0001177 76.8107 283.3025 15.30202500 98087
Epoch: 3. Nov. 2025 • Age: 30 hours

Aktueller Status

Höhe 491.2 km
Geschwindigkeit 7.62 km/s
Subsatellitenpunkt -45.23°S, 3.43°W
Startdatum 10. Feb. 2024
Alter 1.7 years
Typ internet

Technische Details

Klassifizierung Payload
Masse 730.00 kg
Trockenmasse 700.00 kg
Gesamtmasse 730.00 kg
Länge 0.30 m
Durchmesser 4.10 m
Spannweite 29.00 m
Form Box + pan
Hersteller SPXS
Bus-Typ Starlink V2M
Phasenstatus In Orbit
Besitzer/Staat SPXS/US

Große Konstellationen

Loading constellations...